Känerkinden
Datum - Zeit
TemperaturTaupunktFeuchteSolar Wind aus Richtung WindböenLuftdruck (QFF)RegenRegenstärkeTrend
02.09.2026 - 00.00Uhr15.0 °C10.2 °C73 %0.0 W/m²0.0 km/hOsten0.0 km/h1019.7 hPa0.0 mm0.0 mm/hwechselhaft
02.09.2026 - 00.05Uhr14.9 °C10.1 °C73 %0.0 W/m²0.0 km/hOsten0.0 km/h1019.6 hPa0.0 mm0.0 mm/hwechselhaft
02.09.2026 - 00.10Uhr14.9 °C10.1 °C73 %0.0 W/m²0.0 km/hOsten0.0 km/h1019.6 hPa0.0 mm0.0 mm/hwechselhaft
02.09.2026 - 00.15Uhr15.1 °C10.3 °C73 %0.0 W/m²0.0 km/hOsten0.0 km/h1019.7 hPa0.0 mm0.0 mm/hwechselhaft
02.09.2026 - 00.20Uhr15.1 °C10.3 °C73 %0.0 W/m²0.0 km/hOsten0.0 km/h1019.7 hPa0.0 mm0.0 mm/hwechselhaft
02.09.2026 - 00.25Uhr15.1 °C10.2 °C73 %0.0 W/m²0.0 km/hOsten0.0 km/h1019.8 hPa0.0 mm0.0 mm/hwechselhaft
02.09.2026 - 00.30Uhr14.9 °C10.1 °C73 %0.0 W/m²0.0 km/hOsten0.0 km/h1019.7 hPa0.0 mm0.0 mm/hwechselhaft
02.09.2026 - 00.35Uhr14.9 °C10.2 °C73 %0.0 W/m²0.0 km/hOsten0.0 km/h1019.8 hPa0.0 mm0.0 mm/hwechselhaft
02.09.2026 - 00.40Uhr14.8 °C10.2 °C74 %0.0 W/m²0.0 km/hOsten0.0 km/h1019.8 hPa0.0 mm0.0 mm/hwechselhaft
02.09.2026 - 00.45Uhr14.4 °C10.1 °C76 %0.0 W/m²0.0 km/hOsten0.0 km/h1019.8 hPa0.0 mm0.0 mm/hwechselhaft
02.09.2026 - 00.50Uhr14.1 °C10.1 °C77 %0.0 W/m²0.0 km/hOsten0.0 km/h1019.8 hPa0.0 mm0.0 mm/hwechselhaft
02.09.2026 - 00.55Uhr14.0 °C10.0 °C77 %0.0 W/m²0.0 km/hOsten0.0 km/h1019.8 hPa0.0 mm0.0 mm/hwechselhaft
02.09.2026 - 01.00Uhr14.2 °C10.1 °C76 %0.0 W/m²0.0 km/hOsten0.0 km/h1019.9 hPa0.0 mm0.0 mm/hwechselhaft
02.09.2026 - 01.05Uhr14.4 °C10.1 °C75 %0.0 W/m²0.0 km/hOsten0.0 km/h1019.9 hPa0.0 mm0.0 mm/hwechselhaft
02.09.2026 - 01.10Uhr14.3 °C10.1 °C76 %0.0 W/m²0.0 km/hOsten0.0 km/h1019.9 hPa0.0 mm0.0 mm/hwechselhaft
02.09.2026 - 01.15Uhr14.4 °C10.0 °C75 %0.0 W/m²0.0 km/hOsten0.0 km/h1019.9 hPa0.0 mm0.0 mm/hwechselhaft
02.09.2026 - 01.20Uhr14.7 °C10.1 °C74 %0.0 W/m²0.0 km/hOsten0.0 km/h1019.8 hPa0.0 mm0.0 mm/hwechselhaft
02.09.2026 - 01.25Uhr14.6 °C10.1 °C74 %0.0 W/m²0.0 km/hOsten0.0 km/h1019.8 hPa0.0 mm0.0 mm/hwechselhaft
02.09.2026 - 01.30Uhr14.4 °C10.0 °C75 %0.0 W/m²0.0 km/hOsten0.0 km/h1019.8 hPa0.0 mm0.0 mm/hwechselhaft
02.09.2026 - 01.35Uhr14.2 °C10.0 °C76 %0.0 W/m²0.0 km/hOsten0.0 km/h1019.8 hPa0.0 mm0.0 mm/hwechselhaft
02.09.2026 - 01.40Uhr14.1 °C9.9 °C76 %0.0 W/m²0.0 km/hOsten0.0 km/h1019.8 hPa0.0 mm0.0 mm/hwechselhaft
02.09.2026 - 01.45Uhr14.1 °C9.9 °C76 %0.0 W/m²0.0 km/hOsten0.0 km/h1019.9 hPa0.0 mm0.0 mm/hwechselhaft
02.09.2026 - 01.50Uhr14.1 °C9.9 °C76 %0.0 W/m²0.0 km/hOsten0.0 km/h1019.9 hPa0.0 mm0.0 mm/hwechselhaft
02.09.2026 - 01.55Uhr14.2 °C9.9 °C76 %0.0 W/m²0.0 km/hOsten0.0 km/h1019.9 hPa0.0 mm0.0 mm/hwechselhaft
02.09.2026 - 02.00Uhr14.2 °C9.9 °C76 %0.0 W/m²0.0 km/hOsten0.0 km/h1019.9 hPa0.0 mm0.0 mm/hwechselhaft
02.09.2026 - 02.05Uhr14.0 °C9.8 °C76 %0.0 W/m²0.0 km/hOsten0.0 km/h1019.8 hPa0.0 mm0.0 mm/hwechselhaft
02.09.2026 - 02.10Uhr13.9 °C9.8 °C76 %0.0 W/m²0.0 km/hOsten0.0 km/h1019.9 hPa0.0 mm0.0 mm/hwechselhaft
02.09.2026 - 02.15Uhr13.9 °C9.8 °C76 %0.0 W/m²0.0 km/hOsten0.0 km/h1019.9 hPa0.0 mm0.0 mm/hwechselhaft
02.09.2026 - 02.20Uhr13.9 °C9.7 °C76 %0.0 W/m²0.0 km/hOsten0.0 km/h1019.9 hPa0.0 mm0.0 mm/hwechselhaft
02.09.2026 - 02.25Uhr13.9 °C9.7 °C76 %0.0 W/m²0.0 km/hOsten0.0 km/h1019.9 hPa0.0 mm0.0 mm/hwechselhaft
02.09.2026 - 02.30Uhr14.0 °C9.8 °C76 %0.0 W/m²0.0 km/hOsten0.0 km/h1019.8 hPa0.0 mm0.0 mm/hwechselhaft
02.09.2026 - 02.35Uhr13.9 °C9.8 °C76 %0.0 W/m²0.0 km/hOsten0.0 km/h1019.8 hPa0.0 mm0.0 mm/hwechselhaft
02.09.2026 - 02.40Uhr13.8 °C9.6 °C76 %0.0 W/m²0.0 km/hOsten0.0 km/h1019.8 hPa0.0 mm0.0 mm/hwechselhaft
02.09.2026 - 02.45Uhr13.8 °C9.6 °C76 %0.0 W/m²0.0 km/hOsten0.0 km/h1019.7 hPa0.0 mm0.0 mm/hwechselhaft
02.09.2026 - 02.50Uhr13.8 °C9.6 °C76 %0.0 W/m²0.0 km/hOsten0.0 km/h1019.7 hPa0.0 mm0.0 mm/hwechselhaft
02.09.2026 - 02.55Uhr13.7 °C9.6 °C77 %0.0 W/m²0.0 km/hOsten0.0 km/h1019.7 hPa0.0 mm0.0 mm/hwechselhaft
02.09.2026 - 03.00Uhr13.7 °C9.6 °C76 %0.0 W/m²0.0 km/hOsten0.0 km/h1019.6 hPa0.0 mm0.0 mm/hwechselhaft
02.09.2026 - 03.05Uhr13.8 °C9.7 °C76 %0.0 W/m²0.0 km/hOsten0.0 km/h1019.6 hPa0.0 mm0.0 mm/hwechselhaft
02.09.2026 - 03.10Uhr13.8 °C9.6 °C76 %0.0 W/m²0.0 km/hOsten0.0 km/h1019.6 hPa0.0 mm0.0 mm/hwechselhaft
02.09.2026 - 03.15Uhr13.7 °C9.6 °C77 %0.0 W/m²0.0 km/hOsten0.0 km/h1019.5 hPa0.0 mm0.0 mm/hwechselhaft
02.09.2026 - 03.20Uhr13.6 °C9.6 °C77 %0.0 W/m²0.0 km/hOsten0.0 km/h1019.5 hPa0.0 mm0.0 mm/hwechselhaft
02.09.2026 - 03.25Uhr13.5 °C9.5 °C77 %0.0 W/m²0.0 km/hOsten0.0 km/h1019.5 hPa0.0 mm0.0 mm/hwechselhaft
02.09.2026 - 03.30Uhr13.4 °C9.4 °C77 %0.0 W/m²0.0 km/hOsten0.0 km/h1019.4 hPa0.0 mm0.0 mm/hwechselhaft
02.09.2026 - 03.35Uhr13.4 °C9.4 °C77 %0.0 W/m²0.0 km/hOsten0.0 km/h1019.4 hPa0.0 mm0.0 mm/hwechselhaft
02.09.2026 - 03.40Uhr13.5 °C9.5 °C77 %0.0 W/m²0.0 km/hOsten0.0 km/h1019.4 hPa0.0 mm0.0 mm/hwechselhaft
02.09.2026 - 03.45Uhr13.3 °C9.5 °C78 %0.0 W/m²0.0 km/hOsten0.0 km/h1019.4 hPa0.0 mm0.0 mm/hwechselhaft
02.09.2026 - 03.50Uhr13.4 °C9.5 °C78 %0.0 W/m²0.0 km/hOsten0.0 km/h1019.3 hPa0.0 mm0.0 mm/hwechselhaft
02.09.2026 - 03.55Uhr13.3 °C9.5 °C78 %0.0 W/m²0.0 km/hOsten0.0 km/h1019.4 hPa0.0 mm0.0 mm/hwechselhaft
02.09.2026 - 04.00Uhr13.2 °C9.4 °C78 %0.0 W/m²0.0 km/hOsten0.0 km/h1019.4 hPa0.0 mm0.0 mm/hwechselhaft
02.09.2026 - 04.05Uhr13.4 °C9.5 °C77 %0.0 W/m²0.0 km/hOsten0.0 km/h1019.4 hPa0.0 mm0.0 mm/hwechselhaft
02.09.2026 - 04.10Uhr13.3 °C9.4 °C77 %0.0 W/m²0.0 km/hOsten0.0 km/h1019.4 hPa0.0 mm0.0 mm/hwechselhaft
02.09.2026 - 04.15Uhr13.3 °C9.5 °C78 %0.0 W/m²0.0 km/hOsten0.0 km/h1019.4 hPa0.0 mm0.0 mm/hwechselhaft
02.09.2026 - 04.20Uhr13.3 °C9.5 °C78 %0.0 W/m²0.0 km/hOsten0.0 km/h1019.4 hPa0.0 mm0.0 mm/hwechselhaft
02.09.2026 - 04.25Uhr13.2 °C9.4 °C78 %0.0 W/m²0.0 km/hOsten0.0 km/h1019.4 hPa0.0 mm0.0 mm/hwechselhaft
02.09.2026 - 04.30Uhr13.1 °C9.4 °C78 %0.0 W/m²0.0 km/hOsten0.0 km/h1019.4 hPa0.0 mm0.0 mm/hwechselhaft
02.09.2026 - 04.35Uhr13.2 °C9.4 °C78 %0.0 W/m²0.0 km/hOsten0.0 km/h1019.4 hPa0.0 mm0.0 mm/hwechselhaft
02.09.2026 - 04.40Uhr13.4 °C9.4 °C77 %0.0 W/m²0.0 km/hOsten0.0 km/h1019.4 hPa0.0 mm0.0 mm/hwechselhaft
02.09.2026 - 04.45Uhr13.3 °C9.4 °C77 %0.0 W/m²0.0 km/hOsten0.0 km/h1019.5 hPa0.0 mm0.0 mm/hwechselhaft
02.09.2026 - 04.50Uhr13.3 °C9.4 °C77 %0.0 W/m²0.0 km/hOsten0.0 km/h1019.6 hPa0.0 mm0.0 mm/hwechselhaft
02.09.2026 - 04.55Uhr13.5 °C9.4 °C77 %0.0 W/m²0.0 km/hOsten0.0 km/h1019.6 hPa0.0 mm0.0 mm/hwechselhaft
02.09.2026 - 05.00Uhr13.3 °C9.4 °C77 %0.0 W/m²0.0 km/hOsten0.0 km/h1019.5 hPa0.0 mm0.0 mm/hwechselhaft
02.09.2026 - 05.05Uhr13.1 °C9.3 °C77 %0.0 W/m²0.0 km/hOsten0.0 km/h1019.5 hPa0.0 mm0.0 mm/hwechselhaft
02.09.2026 - 05.10Uhr13.0 °C9.3 °C78 %0.0 W/m²0.0 km/hOsten0.0 km/h1019.4 hPa0.0 mm0.0 mm/hwechselhaft
02.09.2026 - 05.15Uhr13.1 °C9.3 °C78 %0.0 W/m²0.0 km/hOsten0.0 km/h1019.4 hPa0.0 mm0.0 mm/hwechselhaft
02.09.2026 - 05.20Uhr13.2 °C9.4 °C78 %0.0 W/m²0.0 km/hOst-NO0.0 km/h1019.4 hPa0.0 mm0.0 mm/hwechselhaft
02.09.2026 - 05.25Uhr13.4 °C9.4 °C77 %0.0 W/m²0.0 km/hOst-NO0.0 km/h1019.4 hPa0.0 mm0.0 mm/hwechselhaft
02.09.2026 - 05.30Uhr13.4 °C9.4 °C77 %0.0 W/m²0.0 km/hOst-NO0.0 km/h1019.4 hPa0.0 mm0.0 mm/hwechselhaft
02.09.2026 - 05.35Uhr13.2 °C9.3 °C77 %0.0 W/m²0.0 km/hOst-NO0.0 km/h1019.3 hPa0.0 mm0.0 mm/hwechselhaft
02.09.2026 - 05.40Uhr13.1 °C9.4 °C78 %0.0 W/m²0.0 km/hOst-NO0.0 km/h1019.4 hPa0.0 mm0.0 mm/hwechselhaft
02.09.2026 - 05.45Uhr13.1 °C9.4 °C78 %0.0 W/m²0.4 km/hOst-NO3.2 km/h1019.4 hPa0.0 mm0.0 mm/hwechselhaft
02.09.2026 - 05.50Uhr13.2 °C9.4 °C78 %0.0 W/m²3.5 km/hOst-NO4.7 km/h1019.4 hPa0.0 mm0.0 mm/hwechselhaft
02.09.2026 - 05.55Uhr13.2 °C9.4 °C78 %0.0 W/m²3.8 km/hOst-NO4.7 km/h1019.3 hPa0.0 mm0.0 mm/hwechselhaft
02.09.2026 - 06.00Uhr13.1 °C9.4 °C78 %0.0 W/m²3.3 km/hOsten4.7 km/h1019.2 hPa0.0 mm0.0 mm/hwechselhaft
02.09.2026 - 06.05Uhr12.9 °C9.3 °C78 %0.0 W/m²2.5 km/hOsten4.7 km/h1019.3 hPa0.0 mm0.0 mm/hwechselhaft
02.09.2026 - 06.10Uhr13.0 °C9.3 °C78 %0.0 W/m²1.1 km/hOst-NO3.2 km/h1019.3 hPa0.0 mm0.0 mm/hwechselhaft
02.09.2026 - 06.15Uhr13.1 °C9.4 °C78 %0.0 W/m²0.0 km/hOst-NO0.0 km/h1019.3 hPa0.0 mm0.0 mm/hwechselhaft
02.09.2026 - 06.20Uhr13.1 °C9.4 °C78 %0.0 W/m²0.0 km/hOst-NO0.0 km/h1019.2 hPa0.0 mm0.0 mm/hwechselhaft
02.09.2026 - 06.25Uhr13.1 °C9.4 °C78 %0.0 W/m²0.0 km/hOst-NO0.0 km/h1019.3 hPa0.0 mm0.0 mm/hwechselhaft
02.09.2026 - 06.30Uhr13.2 °C9.3 °C77 %0.0 W/m²3.5 km/hOst-NO6.5 km/h1019.3 hPa0.0 mm0.0 mm/hwechselhaft
02.09.2026 - 06.35Uhr13.3 °C9.4 °C77 %0.0 W/m²3.4 km/hOst-NO6.5 km/h1019.4 hPa0.0 mm0.0 mm/hwechselhaft
02.09.2026 - 06.40Uhr13.5 °C9.4 °C77 %0.0 W/m²3.3 km/hOst-NO6.5 km/h1019.3 hPa0.0 mm0.0 mm/hwechselhaft
02.09.2026 - 06.45Uhr13.5 °C9.4 °C76 %5.0 W/m²4.5 km/hOst-NO6.5 km/h1019.4 hPa0.0 mm0.0 mm/hwechselhaft
02.09.2026 - 06.50Uhr13.3 °C9.4 °C77 %7.0 W/m²4.1 km/hOst-SO6.5 km/h1019.3 hPa0.0 mm0.0 mm/hwechselhaft
02.09.2026 - 06.55Uhr13.1 °C9.4 °C78 %11.0 W/m²5.7 km/hOsten7.9 km/h1019.4 hPa0.0 mm0.0 mm/hwechselhaft
02.09.2026 - 07.00Uhr13.1 °C9.4 °C78 %16.0 W/m²4.8 km/hOsten6.5 km/h1019.3 hPa0.0 mm0.0 mm/hwechselhaft
02.09.2026 - 07.05Uhr13.2 °C9.4 °C78 %21.0 W/m²4.0 km/hOsten7.9 km/h1019.4 hPa0.0 mm0.0 mm/hwechselhaft
02.09.2026 - 07.10Uhr13.6 °C9.4 °C76 %26.0 W/m²4.9 km/hOsten6.5 km/h1019.4 hPa0.0 mm0.0 mm/hwechselhaft
02.09.2026 - 07.15Uhr14.1 °C9.6 °C75 %32.0 W/m²4.9 km/hOsten7.9 km/h1019.5 hPa0.0 mm0.0 mm/hwechselhaft
02.09.2026 - 07.20Uhr14.3 °C9.7 °C74 %40.0 W/m²4.5 km/hOst-NO6.5 km/h1019.6 hPa0.0 mm0.0 mm/hwechselhaft
02.09.2026 - 07.25Uhr14.6 °C9.8 °C73 %49.0 W/m²2.4 km/hOsten4.7 km/h1019.5 hPa0.0 mm0.0 mm/hwechselhaft
02.09.2026 - 07.30Uhr14.4 °C9.7 °C74 %63.0 W/m²4.1 km/hOst-NO6.5 km/h1019.6 hPa0.0 mm0.0 mm/hwechselhaft
02.09.2026 - 07.35Uhr14.5 °C9.8 °C74 %77.0 W/m²4.5 km/hOst-SO7.9 km/h1019.6 hPa0.0 mm0.0 mm/hwechselhaft
02.09.2026 - 07.40Uhr14.7 °C9.9 °C73 %100.0 W/m²5.8 km/hOsten9.7 km/h1019.6 hPa0.0 mm0.0 mm/hwechselhaft
02.09.2026 - 07.45Uhr14.9 °C10.1 °C73 %114.0 W/m²5.2 km/hOsten7.9 km/h1019.6 hPa0.0 mm0.0 mm/hwechselhaft
02.09.2026 - 07.50Uhr15.3 °C10.3 °C72 %95.0 W/m²3.4 km/hOst-NO7.9 km/h1019.6 hPa0.0 mm0.0 mm/hwechselhaft
02.09.2026 - 07.55Uhr15.6 °C10.3 °C71 %97.0 W/m²4.0 km/hOsten7.9 km/h1019.7 hPa0.0 mm0.0 mm/hwechselhaft
02.09.2026 - 08.00Uhr15.9 °C10.4 °C70 %139.0 W/m²5.4 km/hOsten7.9 km/h1019.7 hPa0.0 mm0.0 mm/hwechselhaft
02.09.2026 - 08.05Uhr16.0 °C10.5 °C70 %163.0 W/m²4.9 km/hOsten7.9 km/h1019.7 hPa0.0 mm0.0 mm/hwechselhaft
02.09.2026 - 08.10Uhr16.2 °C10.6 °C69 %111.0 W/m²2.5 km/hOsten6.5 km/h1019.7 hPa0.0 mm0.0 mm/hwechselhaft
02.09.2026 - 08.15Uhr16.2 °C10.6 °C70 %113.0 W/m²3.5 km/hOsten6.5 km/h1019.6 hPa0.0 mm0.0 mm/hwechselhaft
02.09.2026 - 08.20Uhr16.2 °C10.5 °C69 %100.0 W/m²3.2 km/hOst-NO6.5 km/h1019.5 hPa0.0 mm0.0 mm/hwechselhaft
02.09.2026 - 08.25Uhr16.2 °C10.6 °C69 %90.0 W/m²2.5 km/hOst-NO6.5 km/h1019.5 hPa0.0 mm0.0 mm/hwechselhaft
02.09.2026 - 08.30Uhr16.3 °C10.5 °C68 %63.0 W/m²1.8 km/hNord-NO4.7 km/h1019.6 hPa0.0 mm0.0 mm/hwechselhaft
02.09.2026 - 08.35Uhr16.4 °C10.5 °C68 %74.0 W/m²3.1 km/hOst-NO6.5 km/h1019.6 hPa0.0 mm0.0 mm/hwechselhaft
02.09.2026 - 08.40Uhr16.4 °C10.6 °C68 %93.0 W/m²2.6 km/hOst-NO6.5 km/h1019.6 hPa0.0 mm0.0 mm/hwechselhaft
02.09.2026 - 08.45Uhr16.3 °C10.6 °C69 %144.0 W/m²3.2 km/hOst-NO6.5 km/h1019.7 hPa0.0 mm0.0 mm/hwechselhaft
02.09.2026 - 08.50Uhr16.5 °C10.9 °C69 %380.0 W/m²3.3 km/hOsten7.9 km/h1019.7 hPa0.0 mm0.0 mm/hwechselhaft
02.09.2026 - 08.55Uhr17.1 °C11.1 °C68 %385.0 W/m²3.4 km/hNordosten7.9 km/h1019.7 hPa0.0 mm0.0 mm/hwechselhaft
02.09.2026 - 09.00Uhr17.4 °C11.1 °C67 %308.0 W/m²4.1 km/hOst-NO7.9 km/h1019.6 hPa0.0 mm0.0 mm/hwechselhaft
02.09.2026 - 09.05Uhr17.4 °C11.1 °C67 %171.0 W/m²3.6 km/hNordosten6.5 km/h1019.6 hPa0.0 mm0.0 mm/hwechselhaft
02.09.2026 - 09.10Uhr17.3 °C11.2 °C68 %301.0 W/m²1.7 km/hNordosten4.7 km/h1019.6 hPa0.0 mm0.0 mm/hwechselhaft
02.09.2026 - 09.15Uhr17.6 °C11.4 °C67 %512.0 W/m²2.0 km/hNord-NO4.7 km/h1019.6 hPa0.0 mm0.0 mm/hwechselhaft
02.09.2026 - 09.20Uhr18.2 °C11.6 °C66 %517.0 W/m²2.7 km/hOst-NO6.5 km/h1019.6 hPa0.0 mm0.0 mm/hwechselhaft
02.09.2026 - 09.25Uhr18.4 °C11.7 °C65 %466.0 W/m²3.4 km/hNord-NO7.9 km/h1019.6 hPa0.0 mm0.0 mm/hwechselhaft
02.09.2026 - 09.30Uhr18.5 °C11.7 °C64 %297.0 W/m²4.7 km/hOst-NO11.2 km/h1019.5 hPa0.0 mm0.0 mm/hwechselhaft
02.09.2026 - 09.35Uhr18.7 °C12.0 °C65 %366.0 W/m²2.6 km/hOst-NO6.5 km/h1019.5 hPa0.0 mm0.0 mm/hwechselhaft
02.09.2026 - 09.40Uhr19.0 °C12.3 °C65 %548.0 W/m²1.1 km/hOst-SO3.2 km/h1019.6 hPa0.0 mm0.0 mm/hwechselhaft
02.09.2026 - 09.45Uhr19.7 °C12.6 °C64 %464.0 W/m²1.4 km/hOst-NO3.2 km/h1019.6 hPa0.0 mm0.0 mm/hwechselhaft
02.09.2026 - 09.50Uhr20.1 °C12.8 °C63 %536.0 W/m²3.5 km/hOst-NO9.7 km/h1019.6 hPa0.0 mm0.0 mm/hwechselhaft
02.09.2026 - 09.55Uhr20.1 °C13.2 °C65 %425.0 W/m²4.8 km/hSüdwesten9.7 km/h1019.7 hPa0.0 mm0.0 mm/hwechselhaft
02.09.2026 - 10.00Uhr19.6 °C13.1 °C66 %218.0 W/m²4.0 km/hWest-SW6.5 km/h1019.8 hPa0.0 mm0.0 mm/hwechselhaft
02.09.2026 - 10.05Uhr19.0 °C12.8 °C67 %338.0 W/m²4.3 km/hWest-SW6.5 km/h1019.8 hPa0.0 mm0.0 mm/hwechselhaft
02.09.2026 - 10.10Uhr18.9 °C13.1 °C69 %524.0 W/m²3.5 km/hWest-SW4.7 km/h1019.9 hPa0.0 mm0.0 mm/hwechselhaft
02.09.2026 - 10.15Uhr19.2 °C13.1 °C68 %394.0 W/m²1.8 km/hWest-SW3.2 km/h1019.9 hPa0.0 mm0.0 mm/hwechselhaft
02.09.2026 - 10.20Uhr19.5 °C13.1 °C67 %313.0 W/m²1.6 km/hWest-SW3.2 km/h1019.8 hPa0.0 mm0.0 mm/hwechselhaft
02.09.2026 - 10.25Uhr19.8 °C13.2 °C66 %306.0 W/m²1.6 km/hWest-SW4.7 km/h1019.8 hPa0.0 mm0.0 mm/hwechselhaft
02.09.2026 - 10.30Uhr20.0 °C13.2 °C65 %374.0 W/m²1.5 km/hWest-SW4.7 km/h1020.0 hPa0.0 mm0.0 mm/hwechselhaft
02.09.2026 - 10.35Uhr20.2 °C12.8 °C62 %348.0 W/m²3.5 km/hWest-NW7.9 km/h1020.1 hPa0.0 mm0.0 mm/hwechselhaft
02.09.2026 - 10.40Uhr20.3 °C12.7 °C62 %327.0 W/m²3.3 km/hNordwesten6.5 km/h1020.1 hPa0.0 mm0.0 mm/hwechselhaft
02.09.2026 - 10.45Uhr20.2 °C12.7 °C62 %399.0 W/m²2.1 km/hWesten6.5 km/h1020.0 hPa0.0 mm0.0 mm/hwechselhaft
02.09.2026 - 10.50Uhr20.3 °C12.6 °C61 %431.0 W/m²4.1 km/hWesten7.9 km/h1020.1 hPa0.0 mm0.0 mm/hwechselhaft
02.09.2026 - 10.55Uhr20.2 °C13.0 °C63 %476.0 W/m²5.8 km/hWest-SW9.7 km/h1020.3 hPa0.0 mm0.0 mm/hwechselhaft
02.09.2026 - 11.00Uhr20.2 °C12.9 °C63 %645.0 W/m²8.1 km/hWest-SW9.7 km/h1020.5 hPa0.0 mm0.0 mm/hwechselhaft
02.09.2026 - 11.05Uhr20.5 °C13.2 °C63 %643.0 W/m²6.8 km/hWesten9.7 km/h1020.5 hPa0.0 mm0.0 mm/hsonnig
02.09.2026 - 11.10Uhr20.5 °C12.7 °C61 %670.0 W/m²4.3 km/hWest-SW6.5 km/h1020.3 hPa0.0 mm0.0 mm/hsonnig
02.09.2026 - 11.15Uhr20.7 °C13.1 °C62 %679.0 W/m²5.1 km/hWest-SW9.7 km/h1020.4 hPa0.0 mm0.0 mm/hsonnig
02.09.2026 - 11.20Uhr20.8 °C12.9 °C61 %703.0 W/m²1.7 km/hSüdwesten4.7 km/h1020.5 hPa0.0 mm0.0 mm/hsonnig
02.09.2026 - 11.25Uhr21.2 °C12.8 °C59 %664.0 W/m²7.0 km/hWesten13.0 km/h1020.5 hPa0.0 mm0.0 mm/hsonnig
02.09.2026 - 11.30Uhr21.6 °C12.8 °C57 %596.0 W/m²7.7 km/hWest-SW13.0 km/h1020.4 hPa0.0 mm0.0 mm/hsonnig
02.09.2026 - 11.35Uhr21.7 °C12.5 °C56 %726.0 W/m²4.9 km/hWest-NW11.2 km/h1020.4 hPa0.0 mm0.0 mm/hsonnig
02.09.2026 - 11.40Uhr21.9 °C12.6 °C56 %726.0 W/m²7.6 km/hWesten13.0 km/h1020.4 hPa0.0 mm0.0 mm/hsonnig
02.09.2026 - 11.45Uhr22.3 °C12.9 °C55 %687.0 W/m²7.8 km/hNordwesten13.0 km/h1020.4 hPa0.0 mm0.0 mm/hsonnig
02.09.2026 - 11.50Uhr22.3 °C12.7 °C55 %712.0 W/m²7.6 km/hWest-SW16.2 km/h1020.4 hPa0.0 mm0.0 mm/hsonnig
02.09.2026 - 11.55Uhr22.3 °C12.4 °C54 %714.0 W/m²9.5 km/hWest-NW16.2 km/h1020.3 hPa0.0 mm0.0 mm/hsonnig
02.09.2026 - 12.00Uhr22.3 °C12.7 °C55 %708.0 W/m²8.6 km/hNordwesten19.4 km/h1020.3 hPa0.0 mm0.0 mm/hsonnig
02.09.2026 - 12.05Uhr22.4 °C12.6 °C54 %715.0 W/m²6.9 km/hNordwesten11.2 km/h1020.2 hPa0.0 mm0.0 mm/hwechselhaft
02.09.2026 - 12.10Uhr22.9 °C12.8 °C53 %719.0 W/m²12.2 km/hWest-NW20.9 km/h1020.2 hPa0.0 mm0.0 mm/hwechselhaft
02.09.2026 - 12.15Uhr23.2 °C12.4 °C51 %728.0 W/m²9.7 km/hWesten19.4 km/h1020.3 hPa0.0 mm0.0 mm/hwechselhaft
02.09.2026 - 12.20Uhr23.3 °C12.5 °C51 %738.0 W/m²10.7 km/hWest-SW17.6 km/h1020.3 hPa0.0 mm0.0 mm/hwechselhaft
02.09.2026 - 12.25Uhr23.5 °C12.6 °C50 %759.0 W/m²11.4 km/hNordwesten19.4 km/h1020.3 hPa0.0 mm0.0 mm/hwechselhaft
02.09.2026 - 12.30Uhr23.8 °C12.1 °C48 %858.0 W/m²13.6 km/hWesten19.4 km/h1020.2 hPa0.0 mm0.0 mm/hwechselhaft
02.09.2026 - 12.35Uhr23.4 °C11.7 °C48 %854.0 W/m²12.9 km/hWesten17.6 km/h1020.1 hPa0.0 mm0.0 mm/hwechselhaft
02.09.2026 - 12.40Uhr23.5 °C11.9 °C48 %789.0 W/m²11.3 km/hWest-SW17.6 km/h1020.1 hPa0.0 mm0.0 mm/hwechselhaft
02.09.2026 - 12.45Uhr23.3 °C11.7 °C48 %772.0 W/m²7.1 km/hSüdwesten13.0 km/h1020.0 hPa0.0 mm0.0 mm/hwechselhaft
02.09.2026 - 12.50Uhr23.5 °C11.8 °C48 %784.0 W/m²9.3 km/hWest-NW17.6 km/h1020.0 hPa0.0 mm0.0 mm/hwechselhaft
02.09.2026 - 12.55Uhr23.5 °C11.5 °C47 %779.0 W/m²11.5 km/hWesten20.9 km/h1020.0 hPa0.0 mm0.0 mm/hwechselhaft
02.09.2026 - 13.00Uhr23.4 °C11.6 °C47 %802.0 W/m²9.6 km/hWest-NW17.6 km/h1020.0 hPa0.0 mm0.0 mm/hwechselhaft
02.09.2026 - 13.05Uhr23.8 °C12.0 °C48 %816.0 W/m²12.2 km/hWesten17.6 km/h1019.9 hPa0.0 mm0.0 mm/hwechselhaft
02.09.2026 - 13.10Uhr23.8 °C11.9 °C47 %833.0 W/m²12.5 km/hWesten22.7 km/h1019.9 hPa0.0 mm0.0 mm/hwechselhaft
02.09.2026 - 13.15Uhr23.7 °C11.6 °C46 %779.0 W/m²9.7 km/hWest-SW17.6 km/h1019.9 hPa0.0 mm0.0 mm/hwechselhaft
02.09.2026 - 13.20Uhr23.7 °C12.1 °C48 %821.0 W/m²10.2 km/hWest-SW16.2 km/h1019.8 hPa0.0 mm0.0 mm/hwechselhaft
02.09.2026 - 13.25Uhr24.2 °C11.7 °C46 %814.0 W/m²11.3 km/hWesten17.6 km/h1019.8 hPa0.0 mm0.0 mm/hwechselhaft
02.09.2026 - 13.30Uhr24.1 °C11.5 °C45 %795.0 W/m²8.1 km/hWest-SW20.9 km/h1019.7 hPa0.0 mm0.0 mm/hwechselhaft
02.09.2026 - 13.35Uhr24.5 °C12.0 °C46 %784.0 W/m²13.8 km/hSüdwesten20.9 km/h1019.7 hPa0.0 mm0.0 mm/hwechselhaft
02.09.2026 - 13.40Uhr24.2 °C11.6 °C45 %800.0 W/m²8.4 km/hWest-SW14.4 km/h1019.6 hPa0.0 mm0.0 mm/hwechselhaft
02.09.2026 - 13.45Uhr24.2 °C11.8 °C46 %780.0 W/m²10.1 km/hWesten20.9 km/h1019.6 hPa0.0 mm0.0 mm/hwechselhaft
02.09.2026 - 13.50Uhr24.1 °C12.3 °C47 %795.0 W/m²10.1 km/hWest-NW19.4 km/h1019.5 hPa0.0 mm0.0 mm/hwechselhaft
02.09.2026 - 13.55Uhr24.3 °C12.4 °C47 %786.0 W/m²9.3 km/hWest-NW20.9 km/h1019.5 hPa0.0 mm0.0 mm/hwechselhaft
02.09.2026 - 14.00Uhr24.6 °C12.7 °C47 %780.0 W/m²12.7 km/hWesten19.4 km/h1019.5 hPa0.0 mm0.0 mm/hwechselhaft
02.09.2026 - 14.05Uhr24.2 °C12.3 °C47 %779.0 W/m²9.5 km/hNordwesten14.4 km/h1019.6 hPa0.0 mm0.0 mm/hsonnig
02.09.2026 - 14.10Uhr23.9 °C12.3 °C48 %798.0 W/m²3.5 km/hWest-NW11.2 km/h1019.6 hPa0.0 mm0.0 mm/hsonnig
02.09.2026 - 14.15Uhr24.4 °C12.9 °C48 %807.0 W/m²7.7 km/hNorden16.2 km/h1019.6 hPa0.0 mm0.0 mm/hsonnig
02.09.2026 - 14.20Uhr24.8 °C12.9 °C48 %779.0 W/m²11.6 km/hNordwesten22.7 km/h1019.5 hPa0.0 mm0.0 mm/hsonnig
02.09.2026 - 14.25Uhr24.9 °C12.1 °C45 %795.0 W/m²12.4 km/hNordwesten19.4 km/h1019.5 hPa0.0 mm0.0 mm/hsonnig
02.09.2026 - 14.30Uhr24.8 °C11.9 °C44 %779.0 W/m²11.9 km/hWesten19.4 km/h1019.5 hPa0.0 mm0.0 mm/hsonnig
02.09.2026 - 14.35Uhr24.7 °C11.7 °C44 %694.0 W/m²11.0 km/hWest-SW16.2 km/h1019.5 hPa0.0 mm0.0 mm/hsonnig
02.09.2026 - 14.40Uhr24.8 °C11.2 °C43 %694.0 W/m²13.4 km/hWest-SW20.9 km/h1019.4 hPa0.0 mm0.0 mm/hsonnig
02.09.2026 - 14.45Uhr24.7 °C11.4 °C43 %492.0 W/m²9.8 km/hWesten14.4 km/h1019.4 hPa0.0 mm0.0 mm/hsonnig
02.09.2026 - 14.50Uhr24.9 °C11.5 °C43 %761.0 W/m²14.3 km/hNordwesten24.1 km/h1019.4 hPa0.0 mm0.0 mm/hsonnig
02.09.2026 - 14.55Uhr24.9 °C10.6 °C41 %647.0 W/m²13.6 km/hWest-NW19.4 km/h1019.4 hPa0.0 mm0.0 mm/hsonnig
02.09.2026 - 15.00Uhr24.7 °C10.5 °C41 %744.0 W/m²10.5 km/hWesten16.2 km/h1019.4 hPa0.0 mm0.0 mm/hsonnig
02.09.2026 - 15.05Uhr24.7 °C10.7 °C42 %738.0 W/m²10.1 km/hWest-SW14.4 km/h1019.3 hPa0.0 mm0.0 mm/hsonnig
02.09.2026 - 15.10Uhr24.7 °C10.7 °C41 %740.0 W/m²9.6 km/hWesten16.2 km/h1019.3 hPa0.0 mm0.0 mm/hsonnig
02.09.2026 - 15.15Uhr24.7 °C10.6 °C41 %696.0 W/m²7.8 km/hWesten13.0 km/h1019.3 hPa0.0 mm0.0 mm/hsonnig
02.09.2026 - 15.20Uhr24.6 °C10.8 °C42 %485.0 W/m²8.8 km/hSüdwesten20.9 km/h1019.3 hPa0.0 mm0.0 mm/hsonnig
02.09.2026 - 15.25Uhr24.7 °C10.6 °C41 %751.0 W/m²6.0 km/hWest-SW11.2 km/h1019.2 hPa0.0 mm0.0 mm/hsonnig
02.09.2026 - 15.30Uhr24.9 °C10.7 °C41 %712.0 W/m²7.3 km/hWest-SW13.0 km/h1019.2 hPa0.0 mm0.0 mm/hsonnig
02.09.2026 - 15.35Uhr25.4 °C11.6 °C42 %677.0 W/m²14.5 km/hWest-NW28.8 km/h1019.2 hPa0.0 mm0.0 mm/hsonnig
02.09.2026 - 15.40Uhr25.5 °C11.5 °C42 %654.0 W/m²13.3 km/hWesten20.9 km/h1019.1 hPa0.0 mm0.0 mm/hsonnig
02.09.2026 - 15.45Uhr25.5 °C11.6 °C42 %645.0 W/m²11.5 km/hWest-NW17.6 km/h1019.1 hPa0.0 mm0.0 mm/hsonnig
02.09.2026 - 15.50Uhr25.4 °C11.7 °C42 %635.0 W/m²15.9 km/hWest-NW22.7 km/h1019.1 hPa0.0 mm0.0 mm/hsonnig
02.09.2026 - 15.55Uhr25.4 °C11.4 °C41 %645.0 W/m²11.4 km/hWesten19.4 km/h1019.1 hPa0.0 mm0.0 mm/hsonnig
02.09.2026 - 16.00Uhr25.2 °C11.6 °C42 %677.0 W/m²11.8 km/hWest-SW19.4 km/h1019.1 hPa0.0 mm0.0 mm/hsonnig
02.09.2026 - 16.05Uhr25.1 °C11.5 °C42 %677.0 W/m²10.6 km/hWesten17.6 km/h1019.0 hPa0.0 mm0.0 mm/hsonnig
02.09.2026 - 16.10Uhr25.4 °C11.5 °C42 %397.0 W/m²12.9 km/hWest-NW17.6 km/h1019.0 hPa0.0 mm0.0 mm/hsonnig
02.09.2026 - 16.15Uhr25.3 °C11.3 °C41 %318.0 W/m²13.1 km/hWest-NW19.4 km/h1019.0 hPa0.0 mm0.0 mm/hsonnig
02.09.2026 - 16.20Uhr25.1 °C11.2 °C42 %309.0 W/m²16.4 km/hNordwesten22.7 km/h1019.0 hPa0.0 mm0.0 mm/hsonnig
02.09.2026 - 16.25Uhr25.0 °C11.2 °C42 %336.0 W/m²13.9 km/hWesten20.9 km/h1019.1 hPa0.0 mm0.0 mm/hsonnig
02.09.2026 - 16.30Uhr24.8 °C11.2 °C43 %304.0 W/m²7.9 km/hNordwesten13.0 km/h1019.1 hPa0.0 mm0.0 mm/hsonnig
02.09.2026 - 16.35Uhr25.0 °C11.7 °C43 %373.0 W/m²10.5 km/hWest-NW19.4 km/h1019.1 hPa0.0 mm0.0 mm/hsonnig
02.09.2026 - 16.40Uhr25.0 °C11.7 °C43 %355.0 W/m²14.3 km/hWest-NW19.4 km/h1019.0 hPa0.0 mm0.0 mm/hsonnig
02.09.2026 - 16.45Uhr25.0 °C11.9 °C44 %320.0 W/m²11.6 km/hNordwesten17.6 km/h1019.0 hPa0.0 mm0.0 mm/hsonnig
02.09.2026 - 16.50Uhr24.9 °C11.8 °C44 %323.0 W/m²10.2 km/hWest-NW14.4 km/h1019.0 hPa0.0 mm0.0 mm/hsonnig
02.09.2026 - 16.55Uhr24.8 °C11.9 °C44 %408.0 W/m²10.7 km/hWest-NW16.2 km/h1019.0 hPa0.0 mm0.0 mm/hsonnig
02.09.2026 - 17.00Uhr24.8 °C12.2 °C46 %325.0 W/m²10.1 km/hWesten16.2 km/h1019.0 hPa0.0 mm0.0 mm/hsonnig
02.09.2026 - 17.05Uhr24.8 °C12.3 °C46 %279.0 W/m²10.2 km/hNordwesten16.2 km/h1019.0 hPa0.0 mm0.0 mm/hsonnig
02.09.2026 - 17.10Uhr24.8 °C12.3 °C46 %232.0 W/m²9.5 km/hWest-NW14.4 km/h1019.0 hPa0.0 mm0.0 mm/hsonnig
02.09.2026 - 17.15Uhr24.6 °C12.3 °C46 %220.0 W/m²9.5 km/hWest-NW13.0 km/h1019.0 hPa0.0 mm0.0 mm/hsonnig
02.09.2026 - 17.20Uhr24.6 °C12.5 °C47 %257.0 W/m²8.3 km/hNordwesten13.0 km/h1018.9 hPa0.0 mm0.0 mm/hsonnig
02.09.2026 - 17.25Uhr24.6 °C12.7 °C47 %478.0 W/m²10.1 km/hNordwesten14.4 km/h1018.9 hPa0.0 mm0.0 mm/hsonnig
02.09.2026 - 17.30Uhr24.7 °C12.8 °C47 %557.0 W/m²9.2 km/hNordwesten14.4 km/h1019.0 hPa0.0 mm0.0 mm/hsonnig
02.09.2026 - 17.35Uhr25.0 °C13.2 °C48 %541.0 W/m²14.4 km/hNorden25.9 km/h1018.9 hPa0.0 mm0.0 mm/hsonnig
02.09.2026 - 17.40Uhr24.9 °C13.2 °C48 %388.0 W/m²11.1 km/hNordwesten19.4 km/h1018.9 hPa0.0 mm0.0 mm/hsonnig
02.09.2026 - 17.45Uhr25.0 °C13.0 °C47 %371.0 W/m²9.5 km/hWesten14.4 km/h1018.9 hPa0.0 mm0.0 mm/hsonnig
02.09.2026 - 17.50Uhr24.9 °C13.1 °C48 %163.0 W/m²16.2 km/hWest-NW22.7 km/h1018.9 hPa0.0 mm0.0 mm/hsonnig